World > North America > United States > Michigan > Birch Run   Village of Birch Run, Michigan

Birch Run, MI Hourly Weather Conditions

Feedback E-mail the Weather

Quick WX

Birch Run, MI Weather Maps

°F °C°F °C
Birch Run Weather Map
UTC Time: 2/8/2023, 00:56
Your Time:

Birch Run, MI Regional Weather

Expires:202302080100;;977724
ASUS43 KDTX 080010
RWRMI 
MICHIGAN HOURLY REGIONAL WEATHER ROUNDUP
NATIONAL WEATHER SERVICE DETROIT/PONTIAC MI
700 PM EST TUE FEB 07 2023

NOTE: "FAIR" INDICATES FEW OR NO CLOUDS BELOW 12,000 FEET WITH NO
SIGNIFICANT WEATHER AND/OR OBSTRUCTION TO VISIBILITY.


MIZ047>049-052>055-059>063-066>070-074>076-081>083-080100-
SOUTHEAST LOWER MICHIGAN
  
CITY           SKY/WX    TMP DP  RH WIND       PRES   REMARKS
ADRIAN         CLOUDY    38  32  79 NW9G20    30.10R WCI  31          
6HR MIN TEMP:  38; 6HR MAX TEMP:  51;                                

ALMA           CLOUDY    38  27  64 W16       30.05R WCI  29          
6HR MIN TEMP:  38; 6HR MAX TEMP:  40;                                

ANN ARBOR      CLOUDY    37  31  78 W13       30.07R WCI  29          
BAD AXE        CLOUDY    36  30  79 W10G17    30.00R WCI  29          
6HR MIN TEMP:  36; 6HR MAX TEMP:  40;                                

CARO           CLOUDY    38  32  78 W7        30.03R WCI  33          
DETROIT CITY   CLOUDY    41  32  70 W7G20     30.06R                  
6HR MIN TEMP:  41; 6HR MAX TEMP:  55;                                

DETROIT        CLOUDY    39  31  72 W17       30.07R WCI  30          
6HR MIN TEMP:  39; 6HR MAX TEMP:  53;                                

FLINT          CLOUDY    38  31  76 W14G23    30.06R WCI  30          
6HR MIN TEMP:  37; 6HR MAX TEMP:  46;                                

GROSSE ILE     MOCLDY    38  35  86 NW10      30.07R WCI  31          
6HR MIN TEMP:  38; 6HR MAX TEMP:  54;                                

HILLSDALE      CLOUDY    34  33  95 W10G23    30.07R WCI  26          
6HR MIN TEMP:  34; 6HR MAX TEMP:  49;                                

HOWELL         CLOUDY    38  34  86 W10G18    30.06R WCI  30          
6HR MIN TEMP:  38; 6HR MAX TEMP:  47;                                


CITY           SKY/WX    TMP DP  RH WIND       PRES   REMARKS
JACKSON        CLOUDY    36  31  82 W14G25    30.07R WCI  27          
6HR MIN TEMP:  36; 6HR MAX TEMP:  46;                                

LAMBERTVILLE   CLEAR     37  33  85 W5        30.09R WCI  34          
6HR MIN TEMP:  37; 6HR MAX TEMP:  55;                                

LANSING        CLOUDY    38  31  76 W15       30.08R WCI  29          
6HR MIN TEMP:  38; 6HR MAX TEMP:  41;                                

LAPEER         CLOUDY    37  31  78 W12G17    30.04R WCI  29          
6HR MIN TEMP:  37; 6HR MAX TEMP:  45;                                

MASON          CLOUDY    37  32  84 W9G16     30.07R WCI  30          
6HR MIN TEMP:  37; 6HR MAX TEMP:  46;                                

MONROE         MOCLDY    38  32  80 NW13G18   30.07R WCI  30          
6HR MIN TEMP:  38; 6HR MAX TEMP:  53;                                

MT. CLEMENS    CLOUDY    39  32  74 W8        30.04R WCI  34          
6HR MIN TEMP:  39; 6HR MAX TEMP:  53;                                

PONTIAC        CLOUDY    36  32  87 W12       30.04R WCI  27          
PORT HOPE        N/A     38  32  79 W9G17     29.98R WCI  31          
6HR MIN TEMP:  38; 6HR MAX TEMP:  43;                                

PORT HURON     CLOUDY    39  32  75 CALM      30.05R                  
TRI CITIES     CLOUDY    37  29  72 W15       30.04R WCI  28          
6HR MIN TEMP:  37; 6HR MAX TEMP:  40;                                

MIDLAND        CLOUDY    38  28  67 W10G17    30.03R WCI  31          
6HR MIN TEMP:  38; 6HR MAX TEMP:  41;                                

TROY           CLOUDY    39  32  75 W12G18    30.08R WCI  32          
SAGINAW HB     CLOUDY    38  29  69 W17G24    30.04R WCI  29          
6HR MIN TEMP:  38; 6HR MAX TEMP:  41;                                

$$

SKY/WX - Weather  TMP - Temperature  DP - Dew Point  RH - Humidity
WIND - Wind Direction/Speed PRES - Barometric Pressure VSB - Visibility
WCI - Wind Chill Index E13G22 Wind - East Wind 13 mph/Gusts of 22 mph

Trending Headlines

Trending Entertainment Headlines

Birch Run Radar Loop

Use the map search tool if you want to place a location marker on the radar map...

Birch Run Quick Facts

National Two Day Weather Forecast


E-mail the Birch Run Weather Forecast

Voice your opinion or tell us about page issues...